This demonstration page uses our WeatherBlox Daily Observations layout. Learn more.

Left ArrowRight Arrow

Hourly Observations for September 4, 2015

Temp ( °F °C ) Dew Point ( °F °C ) Humidity (%) Winds ( mph kmh ) Pressure ( in mb ) Visibility ( mi km ) Precip ( " mm )
12:52 am 00:52 Partly Cloudy 79 26.1 68 20 69 69 S 14 22 29.82 1010 10 16 0.00 0.00
1:52 am 01:52 Mostly Cloudy 77 25 68 20 74 74 SSE 12 19 29.83 1010 10 16 0.00 0.00
2:52 am 02:52 Partly Cloudy 75 23.9 68 20 79 79 SSE 15 24 29.83 1010 10 16 0.00 0.00
3:52 am 03:52 Mostly Cloudy 75 23.9 68 20 79 79 SSE 13 20 29.83 1010 10 16 0.00 0.00
4:52 am 04:52 Mostly Cloudy 75 23.9 68 20 79 79 SSE 14 22 29.83 1010 10 16 0.00 0.00
5:52 am 05:52 Partly Cloudy 75 23.9 68 20 79 79 S 13 20 29.84 1011 10 16 0.00 0.00
6:52 am 06:52 Mostly Cloudy 74 23.3 68 20 82 82 SSE 10 17 29.88 1012 10 16 0.00 0.00
7:52 am 07:52 Mostly Cloudy 74 23.3 68 20 82 82 SSE 12 19 29.90 1013 10 16 0.00 0.00
8:52 am 08:52 Mostly Cloudy 75 23.9 69 20.6 82 82 S 12 19 29.90 1013 10 16 0.00 0.00
9:52 am 09:52 Mostly Cloudy 78 25.6 69 20.6 74 74 SSE 15 24 29.90 1013 10 16 0.00 0.00
10:52 am 10:52 Mostly Cloudy 80 26.7 69 20.6 69 69 S 12 19 29.87 1011 10 16 0.00 0.00
11:52 am 11:52 Mostly Cloudy 83 28.3 71 21.7 67 67 SE 15 24 29.86 1011 10 16 0.00 0.00
12:52 pm 12:52 Mostly Cloudy 86 30 70 21.1 59 59 S 14 22 29.86 1011 10 16 0.00 0.00
1:52 pm 13:52 Mostly Cloudy 86 30 71 21.7 61 61 SSE 15 24 29.86 1011 10 16 0.00 0.00
2:52 pm 14:52 Mostly Cloudy 88 31.1 71 21.7 57 57 SSE 18 30 29.85 1011 10 16 0.00 0.00
3:52 pm 15:52 Partly Cloudy 90 32.2 72 22.2 56 56 SSE 17 28 29.83 1010 10 16 0.00 0.00
4:52 pm 16:52 Partly Cloudy 89 31.7 71 21.7 55 55 SE 20 31 29.83 1010 10 16 0.00 0.00
5:52 pm 17:52 Mostly Cloudy 88 31.1 72 22.2 59 59 SE 16 26 29.82 1010 10 16 0.00 0.00
6:52 pm 18:52 Mostly Cloudy 86 30 70 21.1 59 59 SE 20 31 29.83 1010 10 16 0.00 0.00
7:52 pm 19:52 Partly Cloudy 84 28.9 69 20.6 61 61 SSE 17 28 29.84 1010 10 16 0.00 0.00
8:52 pm 20:52 Mostly Cloudy 83 28.3 68 20 61 61 SSE 15 24 29.86 1011 10 16 0.00 0.00
9:52 pm 21:52 Mostly Cloudy 82 27.8 69 20.6 65 65 SSE 17 28 29.88 1012 10 16 0.00 0.00
10:52 pm 22:52 Mostly Cloudy 80 26.7 67 19.4 64 64 SSE 14 22 29.88 1012 10 16 0.00 0.00
11:52 pm 23:52 Mostly Cloudy 80 26.7 68 20 67 67 S 15 24 29.88 1012 10 16 0.00 0.00

Powered by AerisWeather